JBU1256 SEGU-KFLL

Flight info

Callsign JBU1256
Flight time N/A
Altitude 34000
Route TOLAV2 UGUPI UL780 TBG UL465 GCM UG448 IKBIX BHHIA3
Aircraft A21N/M-SDE2E3FGHIJ1RWXY/C

Departure

Time 2026-04-25 17:28
Airport José Joaquín de Olmedo International Airport (SEGU)

Arrival

Time N/A
Airport Fort Lauderdale Hollywood International Airport (KFLL)
Time Latitude Longitude Altitude Speed Heading
2026-04-25 15:45 -2.14832 -79.88299 28 ft 0 kts 300°
2026-04-25 17:16 -2.14836 -79.88291 29 ft 3 kts 300°
2026-04-25 17:16 -2.14846 -79.88275 29 ft 3 kts 303°
2026-04-25 17:17 -2.14856 -79.88260 27 ft 3 kts 309°
2026-04-25 17:17 -2.14872 -79.88251 28 ft 3 kts 12°
2026-04-25 17:17 -2.14883 -79.88255 27 ft 0 kts 31°
2026-04-25 17:18 -2.14898 -79.88260 28 ft 3 kts 26°
2026-04-25 17:18 -2.14902 -79.88262 28 ft 0 kts 26°
2026-04-25 17:22 -2.14897 -79.88260 28 ft 8 kts 26°
2026-04-25 17:22 -2.14831 -79.88224 25 ft 11 kts 30°
2026-04-25 17:23 -2.14784 -79.88177 24 ft 9 kts 83°
2026-04-25 17:23 -2.14801 -79.88135 27 ft 6 kts 120°
2026-04-25 17:23 -2.14820 -79.88102 28 ft 5 kts 120°
2026-04-25 17:23 -2.14825 -79.88094 27 ft 1 kts 120°
2026-04-25 17:24 -2.14818 -79.88027 25 ft 15 kts 44°
2026-04-25 17:24 -2.14743 -79.87981 26 ft 11 kts 30°
2026-04-25 17:24 -2.14677 -79.87940 27 ft 11 kts 41°
2026-04-25 17:24 -2.14650 -79.87881 27 ft 0 kts 71°
2026-04-25 17:25 -2.14649 -79.87880 27 ft 4 kts 71°
2026-04-25 17:25 -2.14634 -79.87823 27 ft 9 kts 77°
2026-04-25 17:25 -2.14646 -79.87768 27 ft 8 kts 128°
2026-04-25 17:26 -2.14693 -79.87761 26 ft 5 kts 206°
2026-04-25 17:26 -2.14713 -79.87772 24 ft 0 kts 209°
2026-04-25 17:27 -2.14729 -79.87781 26 ft 19 kts 209°
2026-04-25 17:27 -2.14792 -79.87816 26 ft 43 kts 209°
2026-04-25 17:28 -2.15768 -79.88379 24 ft 153 kts 210°
2026-04-25 17:28 -2.16812 -79.88981 240 ft 185 kts 209°
2026-04-25 17:28 -2.17942 -79.89703 693 ft 199 kts 219°
2026-04-25 17:28 -2.19091 -79.90540 1282 ft 207 kts 214°
2026-04-25 17:29 -2.20302 -79.91358 1899 ft 213 kts 218°
2026-04-25 17:29 -2.21248 -79.92502 2497 ft 216 kts 244°
2026-04-25 17:29 -2.21491 -79.93959 3127 ft 215 kts 279°
2026-04-25 17:29 -2.20916 -79.95332 3710 ft 220 kts 311°
2026-04-25 17:30 -2.19612 -79.96162 4136 ft 232 kts 349°
2026-04-25 17:30 -2.17965 -79.96123 4583 ft 245 kts
2026-04-25 17:30 -2.16237 -79.95994 5099 ft 253 kts 358°
2026-04-25 17:30 -2.14514 -79.96366 5712 ft 254 kts 353°
2026-04-25 17:31 -2.12753 -79.96218 6263 ft 258 kts
2026-04-25 17:31 -2.10956 -79.95903 6746 ft 265 kts
2026-04-25 17:31 -2.09139 -79.95582 7351 ft 264 kts 10°
2026-04-25 17:31 -2.07357 -79.95279 7978 ft 263 kts
2026-04-25 17:32 -2.05505 -79.95349 8402 ft 271 kts 356°
2026-04-25 17:32 -2.03578 -79.95491 8899 ft 276 kts 356°
2026-04-25 17:32 -2.01673 -79.95631 9428 ft 279 kts 356°
2026-04-25 17:32 -1.99698 -79.95776 9941 ft 282 kts 357°
2026-04-25 17:33 -1.97755 -79.95913 10417 ft 285 kts 356°
2026-04-25 17:33 -1.95775 -79.96074 10908 ft 286 kts 356°
2026-04-25 17:33 -1.93782 -79.96202 11408 ft 288 kts 357°
2026-04-25 17:33 -1.91752 -79.96323 11919 ft 289 kts 358°
2026-04-25 17:34 -1.89741 -79.96443 12430 ft 291 kts 358°
2026-04-25 17:34 -1.87712 -79.96563 12944 ft 293 kts 358°
2026-04-25 17:34 -1.85670 -79.96684 13477 ft 295 kts 358°
2026-04-25 17:34 -1.83606 -79.96810 13940 ft 301 kts 357°
2026-04-25 17:35 -1.81488 -79.96937 14421 ft 308 kts 358°
2026-04-25 17:35 -1.79324 -79.97063 14911 ft 316 kts 358°
2026-04-25 17:35 -1.77106 -79.97192 15403 ft 322 kts 358°
2026-04-25 17:35 -1.74850 -79.97324 15905 ft 328 kts 358°
2026-04-25 17:36 -1.72549 -79.97449 16431 ft 335 kts 357°
2026-04-25 17:36 -1.70196 -79.97572 16953 ft 342 kts 357°